| time (UTC) | temp C | wind direction | speed KPH | gust KPH | rain 1hr cm | rain 24hr cm | rain mn cm | humidity % | barometer mb |
| 20260506062031 | 25 | 140 | 3.2 | 9.7 | 0.00 | 0.00 | 0.00 | 82 | 1007.1 |
| 20260506061531 | 25 | 229 | 6.4 | 9.7 | 0.00 | 0.00 | 0.00 | 82 | 1007.1 |
| 20260506061031 | 25 | 165 | 3.2 | 8.0 | 0.00 | 0.00 | 0.00 | 82 | 1007.3 |
| 20260506050530 | 25 | 101 | 3.2 | 9.7 | 0.00 | 0.00 | 0.00 | 81 | 1007.3 |
| 20260506045030 | 25 | 254 | 1.6 | 4.8 | 0.00 | 0.00 | 0.00 | 81 | 1007.2 |
| 20260506044530 | 25 | 146 | 0.0 | 8.0 | 0.00 | 0.00 | 0.00 | 81 | 1007.2 |
| 20260506044030 | 25 | 126 | 4.8 | 8.0 | 0.00 | 0.00 | 0.00 | 81 | 1007.1 |
| 20260506043530 | 25 | 220 | 4.8 | 8.0 | 0.00 | 0.00 | 0.00 | 81 | 1007.2 |
| 20260506043030 | 25 | 159 | 3.2 | 12.9 | 0.00 | 0.00 | 0.00 | 81 | 1007.1 |
| 20260506042030 | 25 | 103 | 9.7 | 11.3 | 0.00 | 0.00 | 0.00 | 81 | 1007.0 |
| 20260506041530 | 25 | 192 | 1.6 | 11.3 | 0.00 | 0.00 | 0.00 | 81 | 1007.1 |
| 20260506041030 | 25 | 138 | 1.6 | 3.2 | 0.00 | 0.00 | 0.00 | 80 | 1007.1 |
| 20260506040030 | 25 | 146 | 1.6 | 3.2 | 0.00 | 0.00 | 0.00 | 80 | 1006.8 |
| 20260506035530 | 25 | 167 | 1.6 | 3.2 | 0.00 | 0.00 | 0.00 | 80 | 1006.7 |
| 20260506035029 | 25 | 110 | 0.0 | 4.8 | 0.00 | 0.00 | 0.00 | 80 | 1006.7 |
| 20260506034530 | 25 | 132 | 3.2 | 11.3 | 0.00 | 0.00 | 0.00 | 80 | 1006.7 |
| 20260506034029 | 25 | 135 | 6.4 | 11.3 | 0.00 | 0.00 | 0.00 | 80 | 1006.6 |
| 20260506033029 | 25 | 147 | 3.2 | 6.4 | 0.00 | 0.00 | 0.00 | 80 | 1006.5 |
| 20260506032529 | 26 | 113 | 4.8 | 6.4 | 0.00 | 0.00 | 0.00 | 80 | 1006.4 |
| 20260506032029 | 26 | 149 | 1.6 | 6.4 | 0.00 | 0.00 | 0.00 | 80 | 1006.4 |
| 20260506031029 | 26 | 209 | 1.6 | 6.4 | 0.00 | 0.00 | 0.00 | 79 | 1006.2 |
| 20260506030029 | 26 | 153 | 3.2 | 6.4 | 0.00 | 0.00 | 0.00 | 79 | 1006.0 |
| 20260506025529 | 26 | 93 | 1.6 | 6.4 | 0.00 | 0.00 | 0.00 | 79 | 1005.9 |
| 20260506025029 | 26 | 196 | 1.6 | 3.2 | 0.00 | 0.00 | 0.00 | 79 | 1005.8 |
| 20260506024029 | 26 | 107 | 3.2 | 4.8 | 0.00 | 0.00 | 0.00 | 78 | 1005.8 |
| 20260506023529 | 26 | 282 | 0.0 | 8.0 | 0.00 | 0.00 | 0.00 | 78 | 1005.6 |
| 20260506023029 | 26 | 177 | 1.6 | 11.3 | 0.00 | 0.00 | 0.00 | 78 | 1005.5 |
| 20260506022029 | 26 | 105 | 0.0 | 6.4 | 0.00 | 0.00 | 0.00 | 78 | 1005.2 |
| 20260506021529 | 27 | 165 | 6.4 | 6.4 | 0.00 | 0.00 | 0.00 | 77 | 1005.2 |
| 20260506021029 | 27 | 146 | 0.0 | 12.9 | 0.00 | 0.00 | 0.00 | 77 | 1005.2 |
| 20260506020029 | 27 | 139 | 3.2 | 3.2 | 0.00 | 0.00 | 0.00 | 77 | 1005.2 |
| 20260506015529 | 27 | 169 | 0.0 | 6.4 | 0.00 | 0.00 | 0.00 | 76 | 1005.0 |
| 20260506015029 | 27 | 217 | 3.2 | 6.4 | 0.00 | 0.00 | 0.00 | 76 | 1004.9 |
| 20260506014529 | 27 | 159 | 1.6 | 6.4 | 0.00 | 0.00 | 0.00 | 76 | 1004.8 |
| 20260506014029 | 27 | 123 | 1.6 | 6.4 | 0.00 | 0.00 | 0.00 | 76 | 1004.9 |
| 20260506013528 | 27 | 161 | 6.4 | 6.4 | 0.00 | 0.00 | 0.00 | 76 | 1004.8 |
| 20260506013028 | 27 | 150 | 4.8 | 6.4 | 0.00 | 0.00 | 0.00 | 75 | 1005.0 |
| 20260506012028 | 27 | 159 | 0.0 | 3.2 | 0.00 | 0.00 | 0.00 | 75 | 1005.1 |
| 20260506011528 | 27 | 123 | 3.2 | 3.2 | 0.00 | 0.00 | 0.00 | 75 | 1005.1 |
| 20260506011029 | 27 | 157 | 0.0 | 3.2 | 0.00 | 0.00 | 0.00 | 75 | 1005.1 |
| 20260506010528 | 28 | 132 | 0.0 | 3.2 | 0.00 | 0.00 | 0.00 | 74 | 1005.0 |
| 20260506010028 | 28 | 188 | 1.6 | 3.2 | 0.00 | 0.00 | 0.00 | 74 | 1005.0 |
| 20260506005028 | 28 | 121 | 0.0 | 4.8 | 0.00 | 0.00 | 0.00 | 74 | 1004.9 |
| 20260506004528 | 28 | 121 | 0.0 | 4.8 | 0.00 | 0.00 | 0.00 | 74 | 1004.8 |
| 20260506003528 | 28 | 152 | 0.0 | 3.2 | 0.00 | 0.00 | 0.00 | 74 | 1004.8 |
| 20260506003027 | 28 | 117 | 0.0 | 3.2 | 0.00 | 0.00 | 0.00 | 74 | 1004.8 |
| 20260506002028 | 28 | 153 | 3.2 | 11.3 | 0.00 | 0.00 | 0.00 | 73 | 1004.7 |
| 20260506001528 | 28 | 220 | 1.6 | 11.3 | 0.00 | 0.00 | 0.00 | 73 | 1004.5 |
| 20260506001027 | 28 | 184 | 4.8 | 9.7 | 0.00 | 0.00 | 0.00 | 73 | 1004.6 |
| 20260506000027 | 28 | 136 | 4.8 | 4.8 | 0.00 | 0.00 | 0.00 | 73 | 1004.5 |
| 20260505235527 | 28 | 173 | 4.8 | 8.0 | 0.00 | 0.00 | 0.00 | 73 | 1004.4 |
| 20260505235027 | 28 | 157 | 1.6 | 8.0 | 0.00 | 0.00 | 0.00 | 73 | 1004.5 |
| 20260505233527 | 28 | 133 | 1.6 | 4.8 | 0.00 | 0.00 | 0.00 | 73 | 1004.4 |
| 20260505233027 | 28 | 178 | 3.2 | 4.8 | 0.00 | 0.00 | 0.00 | 73 | 1004.4 |
| 20260505232527 | 28 | 213 | 0.0 | 6.4 | 0.00 | 0.00 | 0.00 | 72 | 1004.4 |
| 20260505231526 | 28 | 242 | 1.6 | 11.3 | 0.00 | 0.00 | 0.00 | 73 | 1004.3 |
| 20260505231027 | 28 | 213 | 4.8 | 11.3 | 0.00 | 0.00 | 0.00 | 72 | 1004.4 |
| 20260505230026 | 28 | 126 | 1.6 | 9.7 | 0.00 | 0.00 | 0.00 | 72 | 1004.2 |
| 20260505225526 | 28 | 204 | 1.6 | 9.7 | 0.00 | 0.00 | 0.00 | 72 | 1004.2 |
| 20260505225026 | 28 | 248 | 3.2 | 12.9 | 0.00 | 0.00 | 0.00 | 72 | 1004.2 |
| 20260505224026 | 29 | 171 | 3.2 | 12.9 | 0.00 | 0.00 | 0.00 | 72 | 1004.2 |
| 20260505223527 | 29 | 193 | 8.0 | 8.0 | 0.00 | 0.00 | 0.00 | 72 | 1004.2 |
| 20260505223026 | 29 | 209 | 4.8 | 8.0 | 0.00 | 0.00 | 0.00 | 72 | 1004.3 |
| 20260505222526 | 29 | 251 | 4.8 | 12.9 | 0.00 | 0.00 | 0.00 | 72 | 1004.3 |
| 20260505222026 | 29 | 149 | 8.0 | 12.9 | 0.00 | 0.00 | 0.00 | 72 | 1004.2 |
| 20260505220526 | 29 | 121 | 1.6 | 8.0 | 0.00 | 0.00 | 0.00 | 72 | 1004.3 |
| 20260505220026 | 29 | 247 | 6.4 | 8.0 | 0.00 | 0.00 | 0.00 | 72 | 1004.5 |
| 20260505215026 | 29 | 185 | 6.4 | 12.9 | 0.00 | 0.00 | 0.00 | 72 | 1004.6 |
| 20260505214526 | 29 | 294 | 1.6 | 9.7 | 0.00 | 0.00 | 0.00 | 72 | 1004.8 |
| 20260505214026 | 29 | 209 | 6.4 | 9.7 | 0.00 | 0.00 | 0.00 | 72 | 1004.9 |
| 20260505213526 | 29 | 208 | 6.4 | 11.3 | 0.00 | 0.00 | 0.00 | 72 | 1004.8 |
| 20260505212525 | 29 | 219 | 4.8 | 14.5 | 0.00 | 0.00 | 0.00 | 73 | 1004.8 |
| 20260505212025 | 29 | 258 | 1.6 | 14.5 | 0.00 | 0.00 | 0.00 | 73 | 1004.8 |
| 20260505211525 | 29 | 194 | 3.2 | 14.5 | 0.00 | 0.00 | 0.00 | 73 | 1004.8 |
| 20260505211025 | 29 | 119 | 4.8 | 9.7 | 0.00 | 0.00 | 0.00 | 73 | 1004.9 |
| 20260505210026 | 28 | 150 | 3.2 | 11.3 | 0.00 | 0.00 | 0.00 | 74 | 1005.1 |
| 20260505205525 | 28 | 262 | 4.8 | 12.9 | 0.00 | 0.00 | 0.00 | 74 | 1005.1 |
| 20260505205025 | 28 | 207 | 8.0 | 12.9 | 0.00 | 0.00 | 0.00 | 75 | 1005.3 |
| 20260505204525 | 28 | 296 | 1.6 | 11.3 | 0.00 | 0.00 | 0.00 | 74 | 1005.4 |
| 20260505204025 | 28 | 211 | 4.8 | 17.7 | 0.00 | 0.00 | 0.00 | 75 | 1005.5 |
| 20260505203525 | 28 | 281 | 3.2 | 17.7 | 0.00 | 0.00 | 0.00 | 75 | 1005.6 |
| 20260505203025 | 28 | 163 | 1.6 | 11.3 | 0.00 | 0.00 | 0.00 | 75 | 1005.7 |
| 20260505202525 | 27 | 199 | 0.0 | 16.1 | 0.00 | 0.00 | 0.00 | 76 | 1005.8 |
| 20260505202025 | 27 | 175 | 3.2 | 16.1 | 0.00 | 0.00 | 0.00 | 76 | 1005.8 |
| 20260505201025 | 27 | 91 | 0.0 | 11.3 | 0.00 | 0.00 | 0.00 | 76 | 1005.9 |
| 20260505200525 | 27 | 138 | 8.0 | 11.3 | 0.00 | 0.00 | 0.00 | 76 | 1006.0 |
| 20260505200025 | 27 | 231 | 6.4 | 9.7 | 0.00 | 0.00 | 0.00 | 76 | 1005.9 |
| 20260505195525 | 27 | 217 | 3.2 | 11.3 | 0.00 | 0.00 | 0.00 | 76 | 1006.2 |
| 20260505195025 | 27 | 260 | 1.6 | 11.3 | 0.00 | 0.00 | 0.00 | 76 | 1006.2 |
| 20260505194525 | 27 | 198 | 3.2 | 8.0 | 0.00 | 0.00 | 0.00 | 77 | 1006.3 |
| 20260505194025 | 27 | 241 | 4.8 | 9.7 | 0.00 | 0.00 | 0.00 | 77 | 1006.3 |
| 20260505193524 | 27 | 234 | 3.2 | 9.7 | 0.00 | 0.00 | 0.00 | 77 | 1006.3 |
| 20260505193024 | 27 | 97 | 1.6 | 12.9 | 0.00 | 0.00 | 0.00 | 77 | 1006.3 |
| 20260505192024 | 27 | 84 | 1.6 | 12.9 | 0.00 | 0.00 | 0.00 | 78 | 1006.5 |
| 20260505191024 | 26 | 105 | 3.2 | 11.3 | 0.00 | 0.00 | 0.00 | 78 | 1006.5 |
| 20260505190525 | 26 | 209 | 1.6 | 16.1 | 0.00 | 0.00 | 0.00 | 78 | 1006.6 |
| 20260505190024 | 26 | 96 | 3.2 | 16.1 | 0.00 | 0.00 | 0.00 | 78 | 1006.6 |
| 20260505185024 | 26 | 190 | 3.2 | 12.9 | 0.00 | 0.00 | 0.00 | 78 | 1006.8 |
| 20260505184524 | 26 | 223 | 4.8 | 8.0 | 0.00 | 0.00 | 0.00 | 79 | 1006.9 |
| 20260505184024 | 26 | 215 | 0.0 | 4.8 | 0.00 | 0.00 | 0.00 | 79 | 1007.0 |
| 20260505183524 | 26 | 183 | 3.2 | 11.3 | 0.00 | 0.00 | 0.00 | 79 | 1007.0 |
| 20260505183024 | 26 | 260 | 9.7 | 11.3 | 0.00 | 0.00 | 0.00 | 79 | 1007.0 |
| 20260505182524 | 26 | 239 | 4.8 | 11.3 | 0.00 | 0.00 | 0.00 | 79 | 1007.1 |
| 20260505182024 | 25 | 237 | 1.6 | 8.0 | 0.00 | 0.00 | 0.00 | 80 | 1007.1 |
| 20260505181524 | 25 | 195 | 0.0 | 9.7 | 0.00 | 0.00 | 0.00 | 79 | 1007.2 |
| 20260505181024 | 25 | 329 | 3.2 | 9.7 | 0.00 | 0.00 | 0.00 | 80 | 1007.3 |
| 20260505180524 | 25 | 326 | 3.2 | 9.7 | 0.00 | 0.00 | 0.00 | 80 | 1007.3 |
| 20260505180024 | 25 | 216 | 1.6 | 11.3 | 0.00 | 0.00 | 0.00 | 80 | 1007.3 |
| 20260505175523 | 25 | 215 | 11.3 | 11.3 | 0.00 | 0.00 | 0.00 | 80 | 1007.3 |
| 20260505175024 | 25 | 195 | 8.0 | 9.7 | 0.00 | 0.00 | 0.00 | 80 | 1007.3 |
| 20260505174524 | 25 | 196 | 8.0 | 9.7 | 0.00 | 0.00 | 0.00 | 80 | 1007.4 |
| 20260505174024 | 25 | 220 | 3.2 | 6.4 | 0.00 | 0.00 | 0.00 | 80 | 1007.4 |
| 20260505173524 | 24 | 275 | 6.4 | 6.4 | 0.00 | 0.00 | 0.00 | 80 | 1007.5 |
| 20260505173023 | 24 | 299 | 3.2 | 6.4 | 0.00 | 0.00 | 0.00 | 81 | 1007.6 |
| 20260505172523 | 24 | 151 | 3.2 | 6.4 | 0.00 | 0.00 | 0.00 | 80 | 1007.6 |
| 20260505172023 | 24 | 227 | 3.2 | 8.0 | 0.00 | 0.00 | 0.00 | 80 | 1007.6 |
| 20260505171523 | 24 | 282 | 1.6 | 12.9 | 0.00 | 0.00 | 0.00 | 80 | 1007.5 |
| 20260505171023 | 24 | 296 | 4.8 | 12.9 | 0.00 | 0.00 | 0.00 | 80 | 1007.7 |
| 20260505170523 | 24 | 293 | 4.8 | 11.3 | 0.00 | 0.00 | 0.00 | 80 | 1007.7 |
| 20260505165523 | 24 | 296 | 3.2 | 9.7 | 0.00 | 0.00 | 0.00 | 81 | 1007.6 |
| 20260505165023 | 24 | 213 | 3.2 | 9.7 | 0.00 | 0.00 | 0.00 | 81 | 1007.6 |
| 20260505164523 | 23 | 140 | 6.4 | 9.7 | 0.00 | 0.00 | 0.00 | 81 | 1007.6 |
| 20260505163523 | 23 | 180 | 1.6 | 8.0 | 0.00 | 0.00 | 0.00 | 81 | 1007.7 |
| 20260505163023 | 23 | 172 | 4.8 | 12.9 | 0.00 | 0.00 | 0.00 | 81 | 1007.7 |
| 20260505162523 | 23 | 105 | 9.7 | 12.9 | 0.00 | 0.00 | 0.00 | 81 | 1007.7 |
| 20260505161523 | 23 | 110 | 3.2 | 6.4 | 0.00 | 0.00 | 0.00 | 81 | 1007.8 |
| 20260505153022 | 22 | 261 | 1.6 | 8.0 | 0.00 | 0.00 | 0.00 | 81 | 1007.9 |
| 20260505152522 | 22 | 103 | 3.2 | 8.0 | 0.00 | 0.00 | 0.00 | 82 | 1007.9 |
| 20260505152023 | 22 | 206 | 4.8 | 8.0 | 0.00 | 0.00 | 0.00 | 82 | 1007.7 |
| 20260505151522 | 22 | 209 | 1.6 | 8.0 | 0.00 | 0.00 | 0.00 | 82 | 1007.6 |
| 20260505151021 | 22 | 177 | 1.6 | 9.7 | 0.00 | 0.00 | 0.00 | 82 | 1007.6 |
| 20260505150521 | 22 | 199 | 1.6 | 9.7 | 0.00 | 0.00 | 0.00 | 82 | 1007.5 |
| 20260505140521 | 22 | 254 | 4.8 | 12.9 | 0.00 | 0.00 | 0.00 | 82 | 1007.3 |
| 20260505125019 | 22 | 111 | 4.8 | 9.7 | 0.00 | 0.00 | 0.00 | 82 | 1006.7 |
| 20260505124519 | 22 | 115 | 3.2 | 6.4 | 0.00 | 0.00 | 0.00 | 82 | 1006.7 |
| 20260505124020 | 22 | 212 | 3.2 | 8.0 | 0.00 | 0.00 | 0.00 | 82 | 1006.7 |
| 20260505123520 | 22 | 240 | 1.6 | 11.3 | 0.00 | 0.00 | 0.00 | 82 | 1006.6 |
| 20260505123019 | 22 | 219 | 8.0 | 11.3 | 0.00 | 0.00 | 0.00 | 82 | 1006.5 |
| 20260505122519 | 22 | 142 | 4.8 | 11.3 | 0.00 | 0.00 | 0.00 | 82 | 1006.4 |
| 20260505122019 | 22 | 180 | 3.2 | 11.3 | 0.00 | 0.00 | 0.00 | 82 | 1006.3 |
| 20260505121519 | 22 | 234 | 3.2 | 9.7 | 0.00 | 0.00 | 0.00 | 82 | 1006.4 |
| 20260505121019 | 22 | 128 | 3.2 | 11.3 | 0.00 | 0.00 | 0.00 | 82 | 1006.4 |
| 20260505120519 | 22 | 171 | 6.4 | 11.3 | 0.00 | 0.00 | 0.00 | 82 | 1006.3 |
| 20260505120019 | 22 | 164 | 1.6 | 9.7 | 0.00 | 0.00 | 0.00 | 82 | 1006.4 |
| 20260505115519 | 22 | 260 | 3.2 | 12.9 | 0.00 | 0.00 | 0.00 | 82 | 1006.4 |
| 20260505115019 | 22 | 211 | 3.2 | 12.9 | 0.00 | 0.00 | 0.00 | 82 | 1006.3 |
| 20260505114519 | 22 | 215 | 4.8 | 20.9 | 0.00 | 0.00 | 0.00 | 82 | 1006.2 |
| 20260505114019 | 22 | 169 | 6.4 | 20.9 | 0.00 | 0.00 | 0.00 | 82 | 1006.1 |
| 20260505113519 | 22 | 228 | 6.4 | 9.7 | 0.00 | 0.00 | 0.00 | 82 | 1006.1 |
| 20260505113019 | 22 | 258 | 0.0 | 6.4 | 0.00 | 0.00 | 0.00 | 82 | 1006.3 |
| 20260505112519 | 22 | 241 | 3.2 | 11.3 | 0.00 | 0.00 | 0.00 | 82 | 1006.3 |
| 20260505112019 | 22 | 202 | 3.2 | 11.3 | 0.00 | 0.00 | 0.00 | 82 | 1006.2 |
| 20260505111519 | 22 | 217 | 6.4 | 11.3 | 0.00 | 0.00 | 0.00 | 82 | 1006.2 |
| 20260505111019 | 22 | 217 | 4.8 | 11.3 | 0.00 | 0.00 | 0.00 | 82 | 1006.3 |
| 20260505110519 | 22 | 197 | 3.2 | 14.5 | 0.00 | 0.00 | 0.00 | 82 | 1006.3 |
| 20260505101518 | 21 | 125 | 4.8 | 11.3 | 0.00 | 0.00 | 0.00 | 82 | 1006.4 |
| 20260505101018 | 21 | 182 | 4.8 | 12.9 | 0.00 | 0.00 | 0.00 | 82 | 1006.7 |
| 20260505100518 | 21 | 329 | 3.2 | 12.9 | 0.00 | 0.00 | 0.00 | 82 | 1006.7 |
| 20260505100019 | 21 | 217 | 3.2 | 11.3 | 0.00 | 0.00 | 0.00 | 82 | 1006.5 |
| 20260505095518 | 21 | 360 | 8.0 | 11.3 | 0.00 | 0.00 | 0.00 | 82 | 1006.4 |
| 20260505095018 | 21 | 140 | 3.2 | 6.4 | 0.00 | 0.00 | 0.00 | 82 | 1006.4 |
| 20260505094518 | 21 | 213 | 4.8 | 8.0 | 0.00 | 0.00 | 0.00 | 82 | 1006.6 |
| 20260505094018 | 21 | 202 | 6.4 | 9.7 | 0.00 | 0.00 | 0.00 | 82 | 1006.5 |
| 20260505093518 | 21 | 115 | 9.7 | 12.9 | 0.00 | 0.00 | 0.00 | 82 | 1006.5 |
| 20260505093018 | 21 | 311 | 1.6 | 12.9 | 0.00 | 0.00 | 0.00 | 82 | 1006.7 |
| 20260505092518 | 21 | 233 | 4.8 | 11.3 | 0.00 | 0.00 | 0.00 | 82 | 1006.6 |
| 20260505092018 | 21 | 207 | 3.2 | 12.9 | 0.00 | 0.00 | 0.00 | 81 | 1006.4 |
| 20260505091518 | 21 | 229 | 6.4 | 12.9 | 0.00 | 0.00 | 0.00 | 81 | 1006.5 |
| 20260505091018 | 21 | 217 | 4.8 | 9.7 | 0.00 | 0.00 | 0.00 | 81 | 1006.5 |
| 20260505090518 | 21 | 194 | 0.0 | 8.0 | 0.00 | 0.00 | 0.00 | 81 | 1006.7 |
| 20260505090017 | 21 | 173 | 3.2 | 9.7 | 0.00 | 0.00 | 0.00 | 81 | 1006.6 |
| 20260505085518 | 21 | 241 | 1.6 | 9.7 | 0.00 | 0.00 | 0.00 | 81 | 1006.8 |
| 20260505085018 | 21 | 221 | 4.8 | 6.4 | 0.00 | 0.00 | 0.00 | 81 | 1006.7 |
| 20260505084017 | 21 | 190 | 3.2 | 8.0 | 0.00 | 0.00 | 0.00 | 81 | 1006.6 |
| 20260505083518 | 21 | 287 | 3.2 | 8.0 | 0.00 | 0.00 | 0.00 | 81 | 1006.8 |
| 20260505083017 | 21 | 150 | 4.8 | 19.3 | 0.00 | 0.00 | 0.00 | 81 | 1007.0 |
| 20260505082517 | 21 | 326 | 6.4 | 19.3 | 0.00 | 0.00 | 0.00 | 81 | 1007.2 |
| 20260505082017 | 21 | 55 | 14.5 | 14.5 | 0.00 | 0.00 | 0.00 | 81 | 1007.1 |
| 20260505081517 | 21 | 177 | 8.0 | 20.9 | 0.00 | 0.00 | 0.00 | 81 | 1007.1 |
| 20260505081017 | 21 | 193 | 1.6 | 20.9 | 0.00 | 0.00 | 0.00 | 81 | 1007.2 |
| 20260505080517 | 22 | 187 | 1.6 | 6.4 | 0.00 | 0.00 | 0.00 | 81 | 1007.3 |
| 20260505075517 | 22 | 223 | 6.4 | 17.7 | 0.00 | 0.00 | 0.00 | 81 | 1007.3 |
| 20260505075017 | 22 | 168 | 6.4 | 17.7 | 0.00 | 0.00 | 0.00 | 81 | 1007.3 |
| 20260505074517 | 22 | 208 | 4.8 | 17.7 | 0.00 | 0.00 | 0.00 | 81 | 1007.3 |
| 20260505074017 | 22 | 302 | 3.2 | 14.5 | 0.00 | 0.00 | 0.00 | 81 | 1007.3 |
| 20260505073517 | 22 | 147 | 6.4 | 14.5 | 0.00 | 0.00 | 0.00 | 81 | 1007.4 |
| 20260505073017 | 22 | 192 | 4.8 | 16.1 | 0.00 | 0.00 | 0.00 | 81 | 1007.4 |
| 20260505072517 | 22 | 169 | 9.7 | 16.1 | 0.00 | 0.00 | 0.00 | 81 | 1007.5 |
| 20260505072017 | 22 | 215 | 1.6 | 8.0 | 0.00 | 0.00 | 0.00 | 81 | 1007.6 |
| 20260505071517 | 22 | 278 | 4.8 | 20.9 | 0.00 | 0.00 | 0.00 | 81 | 1007.7 |
| 20260505070516 | 22 | 180 | 1.6 | 17.7 | 0.00 | 0.00 | 0.00 | 81 | 1007.7 |